Location: Bieg
(49.3499°N, 10.3835°E)
Time: 21:26:40
(UTC+00:00)

Resurs 1-4 Rocket - Pass Details

Date: 23 May 2024
Orbit: 798 x 813 km, 98.7° (Epoch: 22 June)

Event Time Altitude Azimuth Distance (km) Brightness Sun altitude
Rises 00:25:14 0° 23° (NNE) 3,319 7.0 -18.3°
Reaches altitude 10° 00:27:54 10° 35° (NE) 2,383 5.7 -18.2°
Maximum altitude 00:32:25 29° 94° (E) 1,450 3.6 -17.9°
Enters shadow 00:36:02 14° 147° (SSE) 2,093 3.9 -17.7°
